Tracking 18957 objects as of 23-Jan-2018
HD Live streaming from Space Station
objects crossing your sky now

FENGYUN 1C DEB

Track FENGYUN 1C DEB now!
10-day predictions


NORAD ID: 30329
Int'l Code: 1999-025AAQ
Perigee: 849.6 km
Apogee: 1,061.2 km
Inclination: 99.2 °
Period: 104.0 minutes
Semi major axis: 7326 km
RCS: 0.035 m2 (small)
Launch date: May 10, 1999
Source: People's Republic of China (PRC)
Launch site: Taiyaun Space Center, China (TSC)

Note: This is SATELLITE DEBRIS
aabbcc
Your satellite tracking list
Your tracking list is empty




NASA's NSSDC Master Catalog

Two Line Element Set (TLE):
1 30329U 99025AAQ 18022.77774969  .00000049  00000-0  76634-4 0  9994
2 30329  99.2293 306.1084 0144425 182.4386 243.1225 13.84421976555354
Source of the keplerian elements: AFSPC